Weather History for Perry, IA

Change the Weather History Date:

Friday, January 11, 2013

  Actual Average Record
Temperature  
Mean Temperature 38 °F -  
Max Temperature 44 °F 23 °F 50 °F (1980)
Min Temperature 33 °F 4 °F -19 °F (1982)
Degree Days  
Heating Degree Days 26    
Moisture  
Dew Point 37 °F    
Average Humidity 95    
Maximum Humidity 100    
Minimum Humidity 81    
Precipitation  
Precipitation 0.00 in - - ()
Sea Level Pressure  
Sea Level Pressure 29.54 in    
Wind  
Wind Speed 10 mph (South)    
Max Wind Speed 26 mph    
Max Gust Speed 37 mph    
Visibility 4 miles    
Events Fog , Rain , Snow    
Averages and records for this station are not official NWS values.
T = Trace of Precipitation, MM = Missing Value Source: NWS Daily Summary

Daily Weather History Graph

Daily Weather History Graph

Search for Another Location

Airport:

Trip Planner

Search our weather history database for the weather conditions in past years. The results will help you decide how hot, cold, wet, or windy it might be!

Date:

Astronomy

Jan. 11, 2013 Rise Set
Actual Time 7:43 AM CST 5:06 PM CST
Civil Twilight 7:12 AM CST 5:37 PM CST
Nautical Twilight 6:37 AM CST 6:12 PM CST
Astronomical Twilight 6:04 AM CST 6:45 PM CST
Moon 7:16 AM CST (1/11) 5:26 PM CST (1/11)
Length of Visible Light 10h 25m
Length of Day
9h 23m
Waning Crescent, 0% of the Moon is Illuminated
Jan 11
Waning Crescent
Jan 11
New
Jan 18
First Quarter
Jan 26
Full
Feb 3
Last Quarter

Hourly Weather History & Observations

Time (CST) Temp. Windchill Dew Point Humidity Pressure Visibility Wind Dir Wind Speed Gust Speed Precip Events Conditions
12:15 AM 33.3 °F 28.9 °F 33.3 °F 100% 29.71 in 0.5 mi ESE 4.6 mph - N/A Fog Fog
12:35 AM 33.3 °F 27.9 °F 33.3 °F 100% 29.71 in 0.5 mi SE 5.8 mph - N/A Fog Fog
12:55 AM 33.1 °F 27.7 °F 33.1 °F 100% 29.71 in 0.5 mi ESE 5.8 mph - N/A Fog Fog
1:15 AM 33.3 °F 27.9 °F 33.3 °F 100% 29.70 in 0.5 mi ESE 5.8 mph - N/A Fog Fog
1:35 AM 33.3 °F 27.1 °F 33.3 °F 100% 29.71 in 0.5 mi SE 6.9 mph - N/A Fog Fog
1:55 AM 33.3 °F 27.1 °F 33.3 °F 100% 29.71 in 0.5 mi SSE 6.9 mph - N/A Fog Fog
2:15 AM 33.3 °F 27.9 °F 33.3 °F 100% 29.70 in 0.5 mi SSE 5.8 mph - N/A Fog Fog
2:35 AM 33.8 °F 27.7 °F 33.8 °F 100% 29.69 in 0.8 mi SSE 6.9 mph - N/A   Overcast
2:55 AM 34.0 °F 28.0 °F 34.0 °F 100% 29.68 in 1.2 mi South 6.9 mph - N/A   Overcast
3:15 AM 34.2 °F 28.2 °F 34.2 °F 100% 29.67 in 2.0 mi SSW 6.9 mph - N/A   Overcast
3:35 AM 34.3 °F 29.2 °F 34.3 °F 100% 29.65 in 2.5 mi SSE 5.8 mph - N/A   Scattered Clouds
3:55 AM 33.3 °F 25.7 °F 33.3 °F 100% 29.65 in 0.5 mi SSE 9.2 mph - N/A Fog Fog
4:15 AM 33.8 °F 25.8 °F 33.8 °F 100% 29.63 in 0.2 mi SSE 10.4 mph - N/A Fog Fog
4:35 AM 34.3 °F 27.0 °F 34.3 °F 100% 29.61 in 0.2 mi SSE 9.2 mph - N/A Fog Fog
4:55 AM 34.9 °F 27.1 °F 34.9 °F 100% 29.61 in 0.2 mi SSE 10.4 mph - N/A Snow Light Snow
5:15 AM 34.0 °F 25.5 °F 34.0 °F 100% 29.62 in 0.2 mi South 11.5 mph - N/A Rain Rain
5:35 AM 34.2 °F 27.5 °F 34.2 °F 100% 29.62 in 0.2 mi SSE 8.1 mph - N/A   Light Drizzle
5:55 AM 34.2 °F 28.2 °F 34.2 °F 100% 29.62 in 0.2 mi South 6.9 mph - N/A Fog Fog
6:15 AM 34.2 °F 26.8 °F 34.2 °F 100% 29.63 in 0.2 mi South 9.2 mph - N/A Snow Light Snow
6:35 AM 34.7 °F 27.5 °F 34.7 °F 100% 29.63 in 0.2 mi South 9.2 mph - N/A Snow Light Snow
6:55 AM 34.7 °F 26.9 °F 34.7 °F 100% 29.62 in 0.5 mi SSE 10.4 mph - N/A Rain Light Rain
7:15 AM 34.7 °F 28.8 °F 34.7 °F 100% 29.62 in 0.2 mi SSE 6.9 mph - N/A Rain Light Rain
7:35 AM 34.7 °F 28.1 °F 34.7 °F 100% 29.62 in 0.2 mi South 8.1 mph - N/A Fog Fog
7:55 AM 34.7 °F 28.1 °F 34.7 °F 100% 29.61 in 0.5 mi South 8.1 mph - N/A Fog Fog
8:15 AM 35.6 °F 28.0 °F 35.6 °F 100% 29.60 in 0.2 mi South 10.4 mph - N/A Fog Fog
8:35 AM 35.6 °F 28.0 °F 35.4 °F 99% 29.58 in 0.2 mi SE 10.4 mph - N/A Fog Fog
8:55 AM 35.6 °F 28.6 °F 35.6 °F 100% 29.59 in 0.2 mi SSE 9.2 mph - N/A Fog Fog
9:35 AM 37.4 °F 30.8 °F 37.0 °F 99% 29.59 in 0.2 mi SSE 9.2 mph - N/A Fog Fog
9:55 AM 37.6 °F 31.0 °F 37.6 °F 100% 29.59 in 0.2 mi South 9.2 mph - N/A Fog Fog
10:15 AM 37.4 °F 30.8 °F 37.4 °F 100% 29.57 in 0.2 mi SSE 9.2 mph - N/A Fog Fog
10:35 AM 37.6 °F 33.1 °F 37.4 °F 99% 29.57 in 0.2 mi SE 5.8 mph - N/A Fog Fog
10:55 AM 37.8 °F 31.8 °F 37.6 °F 99% 29.57 in 0.2 mi SSE 8.1 mph - N/A Fog Fog
11:15 AM 38.5 °F 32.7 °F 38.3 °F 99% 29.55 in 0.2 mi SSE 8.1 mph - N/A Fog Fog
11:35 AM 39.0 °F 33.4 °F 38.7 °F 99% 29.53 in 0.2 mi SSE 8.1 mph - N/A Fog Fog
12:15 PM 40.6 °F 34.3 °F 40.3 °F 99% 29.48 in 1.0 mi SSE 10.4 mph - N/A   Overcast
12:35 PM 40.1 °F 34.7 °F 39.9 °F 99% 29.48 in 1.5 mi SSE 8.1 mph - N/A   Overcast
12:55 PM 39.4 °F 35.2 °F 39.2 °F 99% 29.47 in 1.0 mi SSE 5.8 mph - N/A   Overcast
1:15 PM 40.3 °F 34.4 °F 40.1 °F 99% 29.47 in 2.5 mi South 9.2 mph - N/A   Overcast
1:35 PM 40.6 °F 33.4 °F 40.3 °F 99% 29.46 in 3.0 mi South 12.7 mph - N/A   Overcast
1:55 PM 40.6 °F 34.3 °F 40.3 °F 99% 29.45 in 4.0 mi South 10.4 mph - N/A   Overcast
2:15 PM 40.6 °F 35.4 °F 40.3 °F 99% 29.45 in 4.0 mi South 8.1 mph - N/A   Mostly Cloudy
2:35 PM 39.9 °F 35.1 °F 39.6 °F 99% 29.46 in 5.0 mi South 6.9 mph - N/A   Scattered Clouds
2:55 PM 40.3 °F 34.4 °F 39.9 °F 99% 29.45 in 5.0 mi South 9.2 mph - N/A   Clear
3:15 PM 42.8 °F 37.5 °F 40.8 °F 93% 29.44 in 7.0 mi SSE 9.2 mph - N/A   Clear
3:35 PM 43.0 °F 36.8 °F 40.5 °F 91% 29.44 in 10.0 mi SSE 11.5 mph - N/A   Clear
3:55 PM 42.8 °F 36.2 °F 40.1 °F 90% 29.45 in 10.0 mi South 12.7 mph - N/A   Clear
4:15 PM 42.8 °F 35.8 °F 39.9 °F 90% 29.43 in 10.0 mi SSE 13.8 mph - N/A   Clear
4:35 PM 42.6 °F 35.9 °F 39.4 °F 88% 29.43 in 10.0 mi South 12.7 mph - N/A   Clear
4:55 PM 41.5 °F 33.8 °F 39.2 °F 91% 29.42 in 10.0 mi South 15.0 mph - N/A   Clear
5:15 PM 40.8 °F 32.9 °F 38.7 °F 92% 29.41 in 10.0 mi SSE 15.0 mph - N/A   Clear
5:35 PM 39.9 °F 31.8 °F 37.6 °F 91% 29.43 in 10.0 mi South 15.0 mph - N/A   Clear
5:55 PM 41.4 °F 33.3 °F 38.5 °F 89% 29.42 in 10.0 mi South 16.1 mph - N/A   Clear
6:15 PM 40.6 °F 32.7 °F 37.6 °F 89% 29.43 in 10.0 mi South 15.0 mph - N/A   Clear
6:35 PM 40.5 °F 32.8 °F 37.6 °F 89% 29.43 in 10.0 mi South 13.8 mph - N/A   Clear
6:55 PM 41.9 °F 33.4 °F 38.3 °F 87% 29.43 in 10.0 mi South 18.4 mph - N/A   Clear
7:15 PM 42.3 °F 33.6 °F 38.7 °F 87% 29.43 in 10.0 mi SSW 19.6 mph - N/A   Clear
7:35 PM 42.3 °F 33.6 °F 38.8 °F 88% 29.43 in 10.0 mi SSW 19.6 mph - N/A   Clear
7:55 PM 43.2 °F 34.2 °F 39.2 °F 86% 29.43 in 10.0 mi SSW 21.9 mph - N/A   Clear
8:15 PM 43.0 °F 33.8 °F 39.2 °F 86% 29.43 in 10.0 mi SSW 23.0 mph 26.5 mph N/A   Clear
8:35 PM 43.5 °F 34.7 °F 39.2 °F 85% 29.43 in 10.0 mi SSW 21.9 mph - N/A   Clear
8:55 PM 43.7 °F 35.0 °F 39.2 °F 84% 29.43 in 10.0 mi SSW 21.9 mph - N/A   Clear
9:15 PM 44.2 °F 35.2 °F 39.4 °F 83% 29.44 in 10.0 mi SSW 24.2 mph - N/A   Clear
9:35 PM 44.4 °F 36.1 °F 39.4 °F 82% 29.45 in 10.0 mi SSW 20.7 mph 28.8 mph N/A   Clear
9:55 PM 43.7 °F 35.7 °F 39.2 °F 84% 29.46 in 10.0 mi SSW 18.4 mph - N/A   Clear
10:15 PM 44.1 °F 35.9 °F 39.4 °F 84% 29.46 in 10.0 mi SSW 19.6 mph - N/A   Mostly Cloudy
10:35 PM 44.6 °F 36.4 °F 39.6 °F 82% 29.48 in 10.0 mi SSW 20.7 mph - N/A   Overcast
10:55 PM 44.8 °F 36.9 °F 39.4 °F 81% 29.49 in 10.0 mi SSW 19.6 mph - N/A   Overcast
11:15 PM 43.7 °F 36.3 °F 39.2 °F 84% 29.50 in 10.0 mi SSW 16.1 mph - N/A   Overcast
11:35 PM 39.4 °F 28.7 °F 37.0 °F 91% 29.56 in 10.0 mi WNW 24.2 mph 29.9 mph N/A   Overcast
11:55 PM 34.7 °F 22.0 °F 32.4 °F 91% 29.59 in 10.0 mi WNW 26.5 mph 36.8 mph N/A   Overcast